Weather History for Cavalier, ND

Change the Weather History Date:

Thursday, May 9, 2013

  Actual Average (KGAF) Record (KGAF)
Temperature  
Mean Temperature 46 °F -  
Max Temperature 60 °F 68 °F 91 °F (1985)
Min Temperature 32 °F 41 °F 23 °F (1966)
Degree Days  
Heating Degree Days 19    
Moisture  
Dew Point -    
Average Humidity    
Maximum Humidity    
Minimum Humidity    
Precipitation  
Precipitation 0.00 in - - ()
Sea Level Pressure  
Sea Level Pressure 30.25 in    
Wind  
Wind Speed 11 mph (NE)    
Max Wind Speed 14 mph    
Max Gust Speed 21 mph    
Visibility 10 miles    
Events      
Averages and records for this station are not official NWS values.
T = Trace of Precipitation, MM = Missing Value Source: NWS Daily Summary

Daily Weather History Graph

Daily Weather History Graph

Search for Another Location

Airport:

Trip Planner

Search our weather history database for the weather conditions in past years. The results will help you decide how hot, cold, wet, or windy it might be!

Date:

Astronomy

May. 09, 2013 Rise Set
Actual Time 5:57 AM CDT 8:57 PM CDT
Civil Twilight 5:20 AM CDT 9:34 PM CDT
Nautical Twilight 4:32 AM CDT 10:22 PM CDT
Astronomical Twilight 3:34 AM CDT 11:22 PM CDT
Moon 5:45 AM CDT (5/9) 8:53 PM CDT (5/9)
Length of Visible Light 16h 14m
Length of Day
15h 00m
Waning Crescent, 0% of the Moon is Illuminated
May 9
Waning Crescent
May 9
New
May 17
First Quarter
May 24
Full
May 31
Last Quarter

Hourly Weather History & Observations

Time (CDT) Temp. Windchill Dew Point Humidity Pressure Visibility Wind Dir Wind Speed Gust Speed Precip Events Conditions
12:55 AM 37.4 °F 28.9 °F - N/A% 30.24 in 10.0 mi North 13.8 mph - N/A   Clear
1:15 AM 37.4 °F 28.9 °F - N/A% 30.24 in 10.0 mi NNW 13.8 mph - N/A   Clear
1:35 AM 37.4 °F 29.3 °F - N/A% 30.25 in 10.0 mi NNW 12.7 mph 18.4 mph N/A   Clear
1:55 AM 35.6 °F 27.1 °F - N/A% 30.25 in 10.0 mi NNW 12.7 mph - N/A   Clear
2:15 AM 35.6 °F 27.5 °F - N/A% 30.25 in 10.0 mi NNW 11.5 mph - N/A   Clear
3:15 AM 33.8 °F 24.8 °F - N/A% 30.26 in 10.0 mi NNW 12.7 mph - N/A   Clear
3:55 AM 32.0 °F 22.5 °F - N/A% 30.26 in 10.0 mi NNW 12.7 mph 18.4 mph N/A   Clear
4:35 AM 32.0 °F 23.0 °F - N/A% 30.26 in 10.0 mi NNW 11.5 mph - N/A   Clear
4:55 AM 32.0 °F 22.1 °F - N/A% 30.26 in 10.0 mi NNW 13.8 mph - N/A   Clear
5:35 AM 32.0 °F 22.1 °F - N/A% 30.27 in 10.0 mi North 13.8 mph - N/A   Clear
5:55 AM 32.0 °F 23.0 °F - N/A% 30.28 in 10.0 mi North 11.5 mph - N/A   Clear
6:15 AM 32.0 °F 23.0 °F - N/A% 30.28 in 10.0 mi North 11.5 mph - N/A   Clear
6:55 AM 32.0 °F 23.6 °F - N/A% 30.29 in 10.0 mi NNW 10.4 mph - N/A   Clear
7:15 AM 32.0 °F 23.0 °F - N/A% 30.30 in 10.0 mi NNW 11.5 mph - N/A   Clear
7:55 AM 35.6 °F 27.5 °F - N/A% 30.30 in 10.0 mi North 11.5 mph - N/A   Clear
8:15 AM 35.6 °F 27.5 °F - N/A% 30.31 in 10.0 mi North 11.5 mph 18.4 mph N/A   Clear
8:35 AM 37.4 °F 30.3 °F - N/A% 30.31 in 10.0 mi North 10.4 mph 16.1 mph N/A   Clear
9:15 AM 41.0 °F 33.5 °F - N/A% 30.31 in 10.0 mi North 13.8 mph 17.3 mph N/A   Clear
9:35 AM 42.8 °F 36.6 °F - N/A% 30.31 in 10.0 mi North 11.5 mph - N/A   Clear
9:55 AM 44.6 °F 38.8 °F - N/A% 30.31 in 10.0 mi North 11.5 mph - N/A   Clear
10:35 AM 48.2 °F - - N/A% 30.31 in 10.0 mi NNE 11.5 mph 18.4 mph N/A   Clear
10:55 AM 50.0 °F - - N/A% 30.31 in 10.0 mi NNE 10.4 mph - N/A   Clear
11:15 AM 50.0 °F - - N/A% 30.30 in 10.0 mi NNE 11.5 mph 20.7 mph N/A   Clear
11:35 AM 51.8 °F - - N/A% 30.31 in 10.0 mi NNE 10.4 mph 18.4 mph N/A   Clear
12:15 PM 51.8 °F - - N/A% 30.30 in 10.0 mi NE 9.2 mph - N/A   Clear
12:35 PM 53.6 °F - - N/A% 30.29 in 10.0 mi North 9.2 mph 16.1 mph N/A   Clear
12:55 PM 55.4 °F - - N/A% 30.29 in 10.0 mi NE 12.7 mph 17.3 mph N/A   Clear
1:15 PM 55.4 °F - - N/A% 30.28 in 10.0 mi ENE 11.5 mph 16.1 mph N/A   Clear
1:35 PM 55.4 °F - - N/A% 30.27 in 10.0 mi NNE 13.8 mph 17.3 mph N/A   Clear
1:55 PM 57.2 °F - - N/A% 30.27 in 10.0 mi ENE 11.5 mph - N/A   Clear
2:35 PM 57.2 °F - - N/A% 30.26 in 7.0 mi NNE 12.7 mph 18.4 mph N/A   Clear
3:15 PM 59.0 °F - - N/A% 30.24 in 10.0 mi NNE 11.5 mph - N/A   Clear
3:35 PM 59.0 °F - - N/A% 30.24 in 10.0 mi NE 9.2 mph 18.4 mph N/A   Clear
3:55 PM 59.0 °F - - N/A% 30.23 in 10.0 mi ENE 9.2 mph 18.4 mph N/A   Clear
4:15 PM 59.0 °F - - N/A% 30.22 in 10.0 mi NE 8.1 mph 19.6 mph N/A   Clear
4:35 PM 59.0 °F - - N/A% 30.21 in 10.0 mi East 9.2 mph - N/A   Clear
4:55 PM 59.0 °F - - N/A% 30.21 in 10.0 mi ENE 10.4 mph 16.1 mph N/A   Clear
5:15 PM 60.8 °F - - N/A% 30.20 in 10.0 mi East 9.2 mph - N/A   Clear
5:35 PM 60.8 °F - - N/A% 30.20 in 10.0 mi ENE 8.1 mph 16.1 mph N/A   Clear
5:55 PM 60.8 °F - - N/A% 30.19 in 10.0 mi NE 8.1 mph - N/A   Clear
6:15 PM 60.8 °F - - N/A% 30.19 in 10.0 mi NE 9.2 mph - N/A   Clear
6:35 PM 60.8 °F - - N/A% 30.19 in 10.0 mi NE 6.9 mph - N/A   Clear
6:55 PM 59.0 °F - - N/A% 30.19 in 10.0 mi ENE 5.8 mph - N/A   Clear
7:15 PM 59.0 °F - - N/A% 30.18 in 10.0 mi East 5.8 mph - N/A   Clear
7:55 PM 59.0 °F - - N/A% 30.18 in 10.0 mi East 5.8 mph - N/A   Clear
8:15 PM 57.2 °F - - N/A% 30.18 in 10.0 mi East 5.8 mph - N/A   Clear
8:35 PM 55.4 °F - - N/A% 30.19 in 10.0 mi East 4.6 mph - N/A   Clear
8:55 PM 53.6 °F - - N/A% 30.19 in 10.0 mi ESE 3.5 mph - N/A   Clear
9:15 PM 51.8 °F - - N/A% 30.20 in 10.0 mi East 3.5 mph - N/A   Clear
9:35 PM 50.0 °F - - N/A% 30.20 in 10.0 mi ESE 5.8 mph - N/A   Clear
9:55 PM 48.2 °F - - N/A% 30.20 in 10.0 mi ESE 4.6 mph - N/A   Clear
10:15 PM 48.2 °F - - N/A% 30.20 in 10.0 mi SE 4.6 mph - N/A   Clear
10:55 PM 46.4 °F 44.3 °F - N/A% 30.20 in 10.0 mi SE 4.6 mph - N/A   Clear
11:15 PM 46.4 °F 45.2 °F - N/A% 30.20 in 10.0 mi SE 3.5 mph - N/A   Clear
11:35 PM 46.4 °F 45.2 °F - N/A% 30.20 in 10.0 mi SE 3.5 mph - N/A   Clear